CDT,Max TemperatureF,Mean TemperatureF,Min TemperatureF,Max Dew PointF,MeanDew PointF,Min DewpointF,Max Humidity, Mean Humidity, Min Humidity, Max Sea Level PressureIn, Mean Sea Level PressureIn, Min Sea Level PressureIn, Max VisibilityMiles, Mean VisibilityMiles, Min VisibilityMiles, Max Wind SpeedMPH, Mean Wind SpeedMPH, Max Gust SpeedMPH,PrecipitationIn, CloudCover, Events, WindDirDegrees
2013-3-1,28,21,14,18,13,7,93,69,43,30.27,30.23,30.16,10,10,10,20,12,25,0.00,3,,20
2013-3-2,26,17,6,18,10,3,100,78,55,30.25,30.21,30.16,10,10,10,15,6,22,0.00,1,,9
2013-3-3,24,15,6,14,8,1,100,73,54,30.16,30.12,30.08,10,10,10,12,6,16,0.00,0,,8
2013-3-4,26,14,1,18,10,-8,100,80,59,30.18,30.15,30.12,10,10,2,13,4,,0.00,0,,53
2013-3-5,28,22,15,23,19,10,93,78,64,30.14,30.07,30.01,10,10,10,18,11,23,0.00,7,,46
2013-3-6,33,28,24,28,24,16,100,82,64,30.31,30.23,30.11,10,9,2,12,8,16,0.00,8,,5
2013-3-7,28,18,8,16,12,3,92,71,47,30.45,30.39,30.31,10,10,10,10,4,,0.00,2,,44
2013-3-8,35,20,6,27,18,1,100,80,56,30.48,30.41,30.30,10,10,7,13,4,18,0.00,2,,199
2013-3-9,37,28,19,34,28,18,100,90,75,30.30,30.08,29.84,10,6,0,17,6,24,0.23,6,,177
2013-3-10,37,34,30,36,33,30,100,93,81,29.89,29.82,29.67,10,5,0,22,8,32,0.05,8,,49
2013-3-11,35,30,26,34,29,18,100,86,69,29.69,29.58,29.49,10,7,2,21,12,32,0.02,8,,356
2013-3-12,30,24,19,25,18,9,86,74,58,29.94,29.79,29.65,10,9,1,16,8,28,0.00,8,,302
2013-3-13,33,26,19,16,9,1,86,52,28,30.25,30.13,29.94,10,10,5,18,10,29,0.00,3,,335
2013-3-14,35,24,12,23,13,7,86,60,32,30.25,30.15,29.96,10,10,10,14,4,20,0.00,0,,236
2013-3-15,32,24,17,28,21,12,100,76,59,29.98,29.94,29.88,10,9,2,21,10,26,0.00,7,,69
2013-3-16,28,22,15,16,12,9,93,68,50,30.10,29.99,29.92,10,9,3,17,8,21,0.00,7,,352
2013-3-17,23,16,8,16,6,-4,93,65,46,30.33,30.23,30.09,10,10,10,14,8,21,0.00,1,,50
2013-3-18,30,20,10,27,20,7,100,87,69,30.08,29.76,29.49,10,7,0,15,5,21,0.12,6,,116
2013-3-19,32,24,17,19,11,3,93,63,40,29.88,29.67,29.49,10,7,1,17,11,30,0.01,6,,292
2013-3-20,24,17,10,12,5,0,68,56,43,29.99,29.92,29.89,10,10,7,15,8,23,0.00,4,,309
2013-3-21,30,22,15,16,12,7,80,65,47,30.01,29.96,29.94,10,10,10,16,7,20,0.00,6,,337
2013-3-22,33,22,12,25,17,9,93,73,56,30.08,30.02,30.00,10,10,10,10,6,16,0.00,6,,339
2013-3-23,33,30,26,25,21,19,93,71,56,30.15,30.11,30.08,10,10,10,13,7,,0.00,8,,36
2013-3-24,33,30,26,27,21,18,80,72,56,30.12,29.99,29.88,10,10,10,23,11,29,0.00,6,,44
2013-3-25,35,29,23,25,21,18,93,69,52,30.09,29.96,29.88,10,10,8,18,12,24,0.00,6,,14
2013-3-26,39,34,30,30,24,19,81,69,52,30.22,30.15,30.08,10,10,4,16,9,21,0.00,7,,346
2013-3-27,44,35,26,25,20,16,86,58,31,30.27,30.23,30.21,10,10,10,16,5,21,0.00,0,,333
2013-3-28,44,34,24,23,19,16,86,56,39,30.31,30.27,30.24,10,10,10,14,5,,0.00,0,,268
2013-3-29,44,32,21,23,19,16,86,55,34,30.31,30.26,30.19,10,10,10,12,6,,0.00,0,,223
2013-3-30,41,36,30,37,27,19,100,73,45,30.19,29.98,29.76,10,8,1,13,7,16,0.17,6,,217
2013-3-31,44,35,26,36,28,10,100,76,36,29.86,29.69,29.59,10,7,2,21,7,32,0.01,4,,292